Location: Unspecified
(37.6100°N, 2.7800°W)
Time: 23:03:30
(UTC+00:00)

OTV 5 (USA 277) - Visible Passes

Search period start: 20 October 2018 00:00
Search period end: 30 October 2018 00:00
Orbit: 387 x 394 km, 54.5° (Epoch: 08 September)

Date Brightness Start Highest point End Pass type
(mag) Time Alt. Az. Time Alt. Az. Time Alt. Az.
20 Oct ? 05:01:53 12° SSW 05:01:53 12° SSW 05:02:21 10° S visible
21 Oct ? 19:00:44 10° S 19:01:04 12° S 19:01:04 12° S visible
22 Oct ? 19:39:31 10° WSW 19:40:03 14° WSW 19:40:03 14° WSW visible
23 Oct ? 18:43:10 10° SSW 18:46:16 51° SE 18:46:27 50° ESE visible
24 Oct ? 17:47:36 10° S 17:50:01 20° SE 17:52:26 10° ENE visible
24 Oct ? 19:22:56 10° WSW 19:25:08 27° WNW 19:25:08 27° WNW visible
25 Oct ? 18:26:07 10° SW 18:29:17 70° NW 18:31:16 21° NE visible
26 Oct ? 19:06:44 10° WNW 19:08:59 18° NNW 19:09:40 17° NNW visible
27 Oct ? 18:09:26 10° WSW 18:12:23 34° NW 18:15:20 10° NNE visible
28 Oct ? 18:51:10 10° NW 18:52:16 11° NNW 18:53:23 10° N visible
29 Oct ? 17:53:08 10° W 17:55:32 19° NW 17:57:58 10° NNE visible
